Home > Weather > Pictou County > Past weeks

Flag for Canada Weather for the Past 2 Weeks in Pictou County, Nova Scotia, Canada

Now
41 °F

Fog.


Feels Like: 32 °F
Forecast: 39 / 42 °F
Wind: 18 mph from Northeast

Location: Charlottetown

Current Time: May 6, 2016 at 4:42:27 PM

Latest Report: May 6, 2016 at 4:00 PM


Visibility: 2 mi

Pressure: 29.82 "Hg

Humidity: 100%

Dew Point: 41 °F

Location of Pictou CountyLocation

Historic Weather in Pictou County — Graph

°F

Pictou County Temperature Yesterday

Maximum temperature yesterday: 41 °F (at 2:00 PM)
Minimum temperature yesterday: 36 °F (at 7:01 AM)
Average temperature yesterday: 39 °F

High & Low Weather Summary for the Past Weeks

 TemperatureHumidityPressure
High59 °F (Apr 23, 1:00 PM)100% (Apr 23, 8:00 PM)30.32 "Hg (Apr 23, 8:00 PM)
Low21 °F (Apr 27, 5:00 AM)27% (Apr 27, 2:00 PM)29.67 "Hg (May 6, 7:00 AM)
Average39 °F69%29.93 "Hg
* Reported Apr 21 3:00 PM — May 6 3:00 PM, Pictou County, Weather by CustomWeather, © 2016

Note: Actual official high and low records may vary slightly from our data, if they occured in-between our weather recording intervals... More about our weather records

Advertising

Pictou County Weather History for the Previous 24 Hours

Scroll right to see more
 ConditionsComfort  
Time TempWeatherWind HumidityBarometerVisibility
3:00 PM
Fri, May 6
39 °FFog.13 mph100%29.80 "Hg2 mi
2:00 PM39 °FFog.18 mph100%29.78 "Hg1 mi
1:00 PM39 °FFog.14 mph100%29.76 "Hg1 mi
12:00 PM39 °FDrizzle. Fog.12 mph100%29.74 "Hg1 mi
11:00 AM39 °FDrizzle. Fog.14 mph100%29.71 "Hg2 mi
10:00 AM39 °FLight rain. Fog.15 mph100%29.69 "Hg4 mi
9:00 AM39 °FLight rain. Fog.16 mph93%29.67 "Hg5 mi
8:52 AM39 °FLight rain. Fog.15 mph93%29.68 "Hg5 mi
8:00 AM37 °FRain. Fog.17 mph100%29.69 "Hg1 mi
7:00 AM36 °FDrizzle. Fog.18 mph100%29.67 "Hg1 mi
6:00 AM36 °FLight rain. Fog.13 mph100%29.68 "Hg2 mi
5:00 AM37 °FLight rain. Fog.13 mph93%29.68 "Hg3 mi
4:49 AM37 °FLight rain. Fog.12 mph93%29.69 "Hg3 mi
4:00 AM37 °FRain. Fog.14 mph100%29.69 "Hg4 mi
3:00 AM37 °FLight rain. Fog.9 mph100%29.73 "Hg3 mi
2:00 AM37 °FLight rain. Fog.12 mph93%29.74 "Hg3 mi
1:00 AM37 °FLight rain. Fog.12 mph100%29.78 "Hg4 mi
12:00 AM37 °FLight rain. Fog.10 mph100%29.80 "Hg5 mi
11:00 PM
Thu, May 5
37 °FLight rain. Fog.10 mph100%29.83 "Hg5 mi
10:00 PM37 °FMostly cloudy.9 mph100%29.85 "Hg10 mi
9:52 PM39 °FMostly cloudy.10 mph93%29.85 "Hg10 mi
9:00 PM39 °FCloudy.10 mph93%29.85 "Hg12 mi
8:00 PM39 °FCloudy.9 mph93%29.85 "Hg12 mi
7:00 PM41 °FMore clouds than sun.9 mph93%29.85 "Hg15 mi
6:00 PM41 °FMostly cloudy.12 mph93%29.87 "Hg15 mi
5:00 PM41 °FLow clouds.14 mph100%29.86 "Hg15 mi
4:00 PM41 °FLow clouds.13 mph93%29.86 "Hg7 mi
Weather by CustomWeather, © 2016

See weather overviewHow to use our weather pages